| time (UTC) | temp C | wind direction | speed KPH | gust KPH | rain 1hr cm | rain 24hr cm | rain mn cm | humidity % | barometer mb |
| 20260507223022 | 24 | 229 | 17.7 | 32.2 | 0.00 | 0.00 | 0.00 | 35 | 1009.0 |
| 20260507221525 | 24 | 223 | 11.3 | 27.4 | 0.00 | 0.00 | 0.00 | 36 | 1009.4 |
| 20260507220019 | 23 | 360 | 19.3 | 35.4 | 0.00 | 0.00 | 0.00 | 37 | 1009.6 |
| 20260507214516 | 23 | 207 | 16.1 | 33.8 | 0.00 | 0.00 | 0.00 | 37 | 1009.8 |
| 20260507213012 | 23 | 360 | 19.3 | 32.2 | 0.00 | 0.00 | 0.00 | 37 | 1010.2 |
| 20260507211527 | 23 | 217 | 19.3 | 35.4 | 0.00 | 0.00 | 0.00 | 38 | 1010.3 |
| 20260507210009 | 23 | 360 | 17.7 | 40.2 | 0.00 | 0.00 | 0.00 | 39 | 1010.4 |
| 20260507204506 | 22 | 237 | 19.3 | 38.6 | 0.00 | 0.00 | 0.00 | 39 | 1010.9 |
| 20260507203003 | 22 | 246 | 16.1 | 33.8 | 0.00 | 0.00 | 0.00 | 39 | 1011.3 |
| 20260507201600 | 22 | 360 | 14.5 | 25.7 | 0.00 | 0.00 | 0.00 | 40 | 1011.5 |
| 20260507200055 | 21 | 223 | 19.3 | 33.8 | 0.00 | 0.00 | 0.00 | 42 | 1011.9 |
| 20260507194553 | 21 | 360 | 19.3 | 38.6 | 0.00 | 0.00 | 0.00 | 42 | 1012.0 |
| 20260507193050 | 21 | 360 | 24.1 | 38.6 | 0.00 | 0.00 | 0.00 | 40 | 1012.5 |
| 20260507191548 | 20 | 208 | 20.9 | 41.8 | 0.00 | 0.00 | 0.00 | 45 | 1012.6 |
| 20260507190046 | 20 | 360 | 14.5 | 37.0 | 0.00 | 0.00 | 0.00 | 46 | 1012.8 |
| 20260507184543 | 19 | 360 | 17.7 | 35.4 | 0.00 | 0.00 | 0.00 | 44 | 1013.0 |
| 20260507183050 | 19 | 360 | 14.5 | 41.8 | 0.00 | 0.00 | 0.00 | 49 | 1013.0 |
| 20260507181538 | 18 | 214 | 17.7 | 40.2 | 0.00 | 0.00 | 0.00 | 47 | 1013.5 |
| 20260507180046 | 18 | 360 | 16.1 | 32.2 | 0.00 | 0.00 | 0.00 | 48 | 1013.7 |
| 20260507174534 | 18 | 360 | 12.9 | 29.0 | 0.00 | 0.00 | 0.00 | 50 | 1014.2 |
| 20260507173036 | 18 | 360 | 11.3 | 29.0 | 0.00 | 0.00 | 0.00 | 52 | 1014.4 |
| 20260507171627 | 17 | 360 | 16.1 | 38.6 | 0.00 | 0.00 | 0.00 | 52 | 1014.5 |
| 20260507170041 | 16 | 360 | 14.5 | 35.4 | 0.00 | 0.00 | 0.00 | 55 | 1014.9 |
| 20260507164521 | 16 | 360 | 17.7 | 38.6 | 0.00 | 0.00 | 0.00 | 55 | 1015.4 |
| 20260507163018 | 16 | 360 | 16.1 | 30.6 | 0.00 | 0.00 | 0.00 | 57 | 1015.5 |
| 20260507161514 | 15 | 360 | 17.7 | 32.2 | 0.00 | 0.00 | 0.00 | 60 | 1015.6 |
| 20260507160012 | 15 | 360 | 17.7 | 35.4 | 0.00 | 0.03 | 0.00 | 61 | 1015.8 |
| 20260507154510 | 14 | 360 | 16.1 | 40.2 | 0.00 | 0.03 | 0.00 | 63 | 1015.9 |
| 20260507153005 | 13 | 360 | 17.7 | 32.2 | 0.00 | 0.03 | 0.00 | 63 | 1016.2 |
| 20260507151502 | 13 | 360 | 19.3 | 32.2 | 0.00 | 0.03 | 0.00 | 65 | 1016.4 |
| 20260507150113 | 13 | 360 | 17.7 | 33.8 | 0.00 | 0.03 | 0.00 | 66 | 1016.5 |
| 20260507144556 | 12 | 360 | 16.1 | 30.6 | 0.00 | 0.03 | 0.00 | 71 | 1016.7 |
| 20260507143104 | 12 | 360 | 16.1 | 29.0 | 0.00 | 0.03 | 0.00 | 72 | 1016.8 |
| 20260507141550 | 11 | 360 | 14.5 | 32.2 | 0.00 | 0.03 | 0.00 | 74 | 1017.0 |
| 20260507140046 | 11 | 360 | 17.7 | 29.0 | 0.00 | 0.03 | 0.00 | 75 | 1017.2 |
| 20260507134542 | 10 | 360 | 12.9 | 29.0 | 0.00 | 0.03 | 0.00 | 77 | 1017.2 |
| 20260507133045 | 10 | 360 | 16.1 | 27.4 | 0.00 | 0.03 | 0.00 | 79 | 1017.3 |
| 20260507131546 | 9 | 360 | 12.9 | 22.5 | 0.00 | 0.03 | 0.00 | 81 | 1017.2 |
| 20260507130041 | 8 | 360 | 11.3 | 22.5 | 0.00 | 0.03 | 0.00 | 82 | 1017.4 |
| 20260507124538 | 7 | 360 | 6.4 | 17.7 | 0.00 | 0.03 | 0.00 | 85 | 1017.2 |
| 20260507123034 | 7 | 360 | 6.4 | 12.9 | 0.00 | 0.03 | 0.00 | 86 | 1017.1 |
| 20260507121534 | 6 | 360 | 4.8 | 14.5 | 0.00 | 0.03 | 0.00 | 87 | 1017.1 |
| 20260507120033 | 6 | 360 | 4.8 | 9.7 | 0.00 | 0.03 | 0.00 | 87 | 1017.2 |
| 20260507114534 | 6 | 360 | 4.8 | 9.7 | 0.00 | 0.03 | 0.00 | 87 | 1017.2 |
| 20260507113030 | 6 | 360 | 4.8 | 9.7 | 0.00 | 0.03 | 0.00 | 87 | 1017.2 |
| 20260507111529 | 6 | 360 | 6.4 | 12.9 | 0.00 | 0.03 | 0.00 | 86 | 1017.4 |
| 20260507110027 | 6 | 360 | 6.4 | 14.5 | 0.00 | 0.03 | 0.00 | 86 | 1017.2 |
| 20260507104525 | 6 | 360 | 8.0 | 16.1 | 0.00 | 0.03 | 0.00 | 86 | 1017.3 |
| 20260507103024 | 6 | 360 | 8.0 | 16.1 | 0.00 | 0.03 | 0.00 | 86 | 1017.3 |
| 20260507101522 | 6 | 360 | 6.4 | 19.3 | 0.00 | 0.03 | 0.00 | 86 | 1017.4 |
| 20260507100019 | 6 | 360 | 8.0 | 17.7 | 0.00 | 0.03 | 0.00 | 86 | 1017.4 |
| 20260507094518 | 7 | 360 | 8.0 | 16.1 | 0.00 | 0.03 | 0.00 | 86 | 1017.5 |
| 20260507093017 | 7 | 360 | 6.4 | 17.7 | 0.00 | 0.03 | 0.00 | 86 | 1017.5 |
| 20260507091513 | 7 | 360 | 6.4 | 16.1 | 0.00 | 0.03 | 0.00 | 86 | 1017.5 |
| 20260507090011 | 7 | 360 | 4.8 | 9.7 | 0.00 | 0.03 | 0.00 | 86 | 1017.7 |
| 20260507084529 | 7 | 360 | 4.8 | 9.7 | 0.00 | 0.03 | 0.00 | 85 | 1017.8 |
| 20260507083005 | 7 | 360 | 3.2 | 8.0 | 0.00 | 0.03 | 0.00 | 85 | 1018.2 |
| 20260507081504 | 6 | 360 | 4.8 | 8.0 | 0.00 | 0.03 | 0.00 | 85 | 1018.1 |
| 20260507080003 | 6 | 360 | 4.8 | 8.0 | 0.00 | 0.03 | 0.00 | 85 | 1018.4 |
| 20260507074608 | 7 | 360 | 3.2 | 9.7 | 0.00 | 0.03 | 0.00 | 84 | 1018.4 |
| 20260507073057 | 7 | 360 | 4.8 | 9.7 | 0.00 | 0.03 | 0.00 | 84 | 1018.5 |
| 20260507071604 | 7 | 360 | 3.2 | 8.0 | 0.00 | 0.03 | 0.00 | 82 | 1018.6 |
| 20260507070104 | 7 | 360 | 4.8 | 8.0 | 0.00 | 0.03 | 0.00 | 82 | 1018.6 |
| 20260507064554 | 7 | 360 | 3.2 | 8.0 | 0.00 | 0.03 | 0.00 | 82 | 1018.8 |
| 20260507063047 | 7 | 360 | 3.2 | 6.4 | 0.00 | 0.03 | 0.00 | 81 | 1019.0 |
| 20260507061542 | 8 | 360 | 4.8 | 8.0 | 0.00 | 0.03 | 0.00 | 79 | 1019.0 |
| 20260507060039 | 8 | 360 | 4.8 | 8.0 | 0.00 | 0.03 | 0.00 | 78 | 1019.1 |
| 20260507054552 | 8 | 360 | 4.8 | 8.0 | 0.00 | 0.03 | 0.00 | 76 | 1019.1 |
| 20260507053034 | 9 | 360 | 3.2 | 9.7 | 0.00 | 0.03 | 0.00 | 75 | 1019.3 |
| 20260507051532 | 10 | 360 | 4.8 | 8.0 | 0.00 | 0.03 | 0.00 | 73 | 1019.3 |
| 20260507050040 | 10 | 360 | 4.8 | 12.9 | 0.00 | 0.03 | 0.03 | 73 | 1019.3 |
| 20260507044530 | 10 | 360 | 3.2 | 8.0 | 0.00 | 0.03 | 0.03 | 72 | 1019.3 |
| 20260507043028 | 10 | 360 | 3.2 | 8.0 | 0.00 | 0.03 | 0.03 | 72 | 1019.4 |
| 20260507041527 | 10 | 360 | 4.8 | 12.9 | 0.00 | 0.03 | 0.03 | 72 | 1019.4 |
| 20260507040026 | 10 | 360 | 3.2 | 9.7 | 0.00 | 0.10 | 0.03 | 71 | 1019.3 |
| 20260507034526 | 10 | 360 | 3.2 | 8.0 | 0.00 | 0.10 | 0.03 | 72 | 1019.5 |
| 20260507033025 | 10 | 360 | 3.2 | 6.4 | 0.00 | 0.10 | 0.03 | 72 | 1019.5 |
| 20260507031527 | 10 | 360 | 3.2 | 6.4 | 0.00 | 0.10 | 0.03 | 70 | 1019.2 |
| 20260507030024 | 10 | 360 | 3.2 | 6.4 | 0.00 | 0.10 | 0.03 | 68 | 1019.2 |
| 20260507024528 | 10 | 360 | 4.8 | 8.0 | 0.00 | 0.10 | 0.03 | 68 | 1019.4 |
| 20260507023023 | 10 | 360 | 3.2 | 6.4 | 0.00 | 0.10 | 0.03 | 67 | 1019.5 |
| 20260507021529 | 9 | 360 | 3.2 | 4.8 | 0.00 | 0.10 | 0.03 | 68 | 1019.1 |
| 20260507020022 | 9 | 360 | 3.2 | 6.4 | 0.00 | 0.10 | 0.03 | 69 | 1018.7 |
| 20260507014522 | 9 | 360 | 3.2 | 6.4 | 0.00 | 0.10 | 0.03 | 70 | 1018.7 |
| 20260507013022 | 9 | 360 | 4.8 | 6.4 | 0.00 | 0.10 | 0.03 | 70 | 1018.8 |
| 20260507011523 | 10 | 360 | 3.2 | 6.4 | 0.00 | 0.10 | 0.03 | 66 | 1018.7 |
| 20260507010029 | 11 | 360 | 3.2 | 6.4 | 0.00 | 0.10 | 0.03 | 62 | 1018.5 |
| 20260507004519 | 12 | 360 | 3.2 | 6.4 | 0.00 | 0.10 | 0.03 | 60 | 1018.5 |
| 20260507003019 | 13 | 360 | 4.8 | 9.7 | 0.00 | 0.10 | 0.03 | 57 | 1018.6 |
| 20260507001518 | 13 | 360 | 8.0 | 14.5 | 0.00 | 0.10 | 0.03 | 53 | 1018.6 |
| 20260507000024 | 13 | 360 | 4.8 | 9.7 | 0.00 | 0.10 | 0.03 | 53 | 1018.7 |
| 20260506234517 | 14 | 360 | 8.0 | 17.7 | 0.00 | 0.10 | 0.03 | 48 | 1018.7 |
| 20260506233016 | 15 | 360 | 6.4 | 16.1 | 0.00 | 0.10 | 0.03 | 48 | 1018.6 |
| 20260506231519 | 15 | 360 | 4.8 | 9.7 | 0.00 | 0.10 | 0.03 | 44 | 1018.8 |
| 20260506230016 | 15 | 360 | 8.0 | 16.1 | 0.00 | 0.10 | 0.03 | 44 | 1018.8 |
| 20260506224515 | 15 | 360 | 11.3 | 16.1 | 0.00 | 0.10 | 0.03 | 46 | 1018.8 |